Weather History for Hickory, NC

Change the Weather History Date:

Monday, October 8, 2012

  Actual Average Record
Temperature  
Mean Temperature 48 °F -  
Max Temperature 50 °F 68 °F 89 °F (2007)
Min Temperature 46 °F 49 °F 30 °F (2001)
Degree Days  
Heating Degree Days 17    
Moisture  
Dew Point 42 °F    
Average Humidity 80    
Maximum Humidity 93    
Minimum Humidity 68    
Precipitation  
Precipitation 0.01 in - - ()
Sea Level Pressure  
Sea Level Pressure 30.16 in    
Wind  
Wind Speed 6 mph (NE)    
Max Wind Speed 9 mph    
Max Gust Speed -    
Visibility 10 miles    
Events Rain    
Averages and records for this station are not official NWS values.
T = Trace of Precipitation, MM = Missing Value Source: NWS Daily Summary

Daily Weather History Graph

Daily Weather History Graph

Search for Another Location

Airport:

Trip Planner

Search our weather history database for the weather conditions in past years. The results will help you decide how hot, cold, wet, or windy it might be!

Date:

Astronomy

Oct. 08, 2012 Rise Set
Actual Time 7:26 AM EDT 6:58 PM EDT
Civil Twilight 7:00 AM EDT 7:24 PM EDT
Nautical Twilight 6:31 AM EDT 7:53 PM EDT
Astronomical Twilight 6:01 AM EDT 8:23 PM EDT
Moon 12:18 AM EDT (10/8) 2:35 PM EDT (10/8)
Length of Visible Light 12h 23m
Length of Day
11h 32m
Waning Gibbous, 46% of the Moon is Illuminated
Oct 8
Waning Gibbous
Oct 15
New
Oct 21
First Quarter
Oct 29
Full
Nov 6
Last Quarter

Hourly Weather History & Observations

Time (EDT) Temp. Windchill Dew Point Humidity Pressure Visibility Wind Dir Wind Speed Gust Speed Precip Events Conditions
12:53 AM 50.0 °F - 43.0 °F 77% 30.12 in 10.0 mi NNE 4.6 mph - N/A   Overcast
1:53 AM 50.0 °F - 43.0 °F 77% 30.12 in 10.0 mi NE 3.5 mph - N/A   Overcast
2:53 AM 50.0 °F - 41.0 °F 71% 30.13 in 10.0 mi NE 5.8 mph - N/A   Overcast
3:53 AM 50.0 °F - 39.9 °F 68% 30.12 in 10.0 mi NE 4.6 mph - N/A   Overcast
4:53 AM 48.9 °F - 41.0 °F 74% 30.13 in 10.0 mi North 5.8 mph - N/A   Overcast
5:53 AM 48.9 °F - 39.9 °F 71% 30.14 in 10.0 mi NNE 6.9 mph - N/A   Overcast
6:53 AM 48.9 °F - 41.0 °F 74% 30.14 in 10.0 mi NNE 3.5 mph - N/A   Overcast
7:53 AM 48.9 °F - 42.1 °F 77% 30.15 in 10.0 mi North 3.5 mph - 0.00 in   Overcast
8:53 AM 48.9 °F - 42.1 °F 77% 30.16 in 10.0 mi NNE 6.9 mph - N/A   Overcast
9:53 AM 50.0 °F - 39.9 °F 68% 30.18 in 10.0 mi NNE 4.6 mph - N/A   Overcast
10:53 AM 50.0 °F - 39.9 °F 68% 30.19 in 10.0 mi ENE 8.1 mph - N/A   Overcast
11:11 AM 50.0 °F - 41.0 °F 71% 30.22 in 10.0 mi NE 6.9 mph - N/A   Overcast
11:53 AM 50.0 °F - 42.1 °F 74% 30.19 in 10.0 mi NE 9.2 mph - N/A   Overcast
12:10 PM 50.0 °F - 42.8 °F 76% 30.22 in 10.0 mi ENE 9.2 mph - N/A   Overcast
12:30 PM 50.0 °F - 42.8 °F 76% 30.22 in 10.0 mi NNE 9.2 mph - N/A   Overcast
12:53 PM 50.0 °F - 42.1 °F 74% 30.18 in 10.0 mi NNE 9.2 mph - N/A   Overcast
1:53 PM 50.0 °F - 42.1 °F 74% 30.16 in 10.0 mi NNE 6.9 mph - N/A   Overcast
2:53 PM 48.0 °F - 43.0 °F 83% 30.14 in 6.0 mi North 6.9 mph - 0.00 in Rain Light Rain
3:04 PM 46.4 °F 42.9 °F 42.8 °F 87% 30.17 in 3.0 mi North 6.9 mph - 0.00 in Rain Light Rain
3:53 PM 48.0 °F - 44.1 °F 86% 30.14 in 7.0 mi North 6.9 mph - 0.01 in   Overcast
4:33 PM 48.2 °F - 44.6 °F 87% 30.15 in 10.0 mi NNE 8.1 mph - N/A   Overcast
4:53 PM 48.0 °F - 44.1 °F 86% 30.12 in 10.0 mi NNE 6.9 mph - N/A   Overcast
5:43 PM 48.2 °F - 42.8 °F 82% 30.14 in 10.0 mi NE 6.9 mph - N/A   Overcast
5:53 PM 48.0 °F - 43.0 °F 83% 30.12 in 10.0 mi NE 6.9 mph - N/A   Overcast
6:20 PM 48.2 °F - 42.8 °F 82% 30.15 in 10.0 mi NE 6.9 mph - N/A   Overcast
6:53 PM 48.0 °F - 43.0 °F 83% 30.13 in 10.0 mi NE 5.8 mph - N/A   Overcast
8:19 PM 46.4 °F 44.3 °F 42.8 °F 87% 30.17 in 10.0 mi NE 4.6 mph - N/A   Overcast
8:53 PM 46.9 °F - 44.1 °F 90% 30.14 in 10.0 mi NE 8.1 mph - N/A   Overcast
9:18 PM 46.4 °F 45.2 °F 44.6 °F 93% 30.17 in 7.0 mi East 3.5 mph - N/A   Overcast
9:53 PM 46.9 °F - 44.1 °F 90% 30.15 in 10.0 mi ENE 3.5 mph - N/A   Overcast
10:53 PM 46.9 °F - 44.1 °F 90% 30.16 in 10.0 mi ENE 4.6 mph - N/A   Overcast
11:53 PM 46.0 °F 43.1 °F 43.0 °F 89% 30.15 in 10.0 mi ENE 5.8 mph - N/A   Overcast